Regional Weather Roundup
Issued by NWS

Home | Current Version | Previous Version | Text Only | Print | Product List | Glossary Off
Versions: 1 2 3 4 5 6 7 8 9 10 11 12 13 14 15 16 17 18 19 20 21 22 23 24 25 26 27 28 29 30 31 32 33 34 35 36 37 38 39 40 41 42 43 44 45 46 47 48 49 50

086
ASUS45 KABQ 281001
RWRNM
NEW MEXICO REGIONAL WEATHER ROUNDUP
NATIONAL WEATHER SERVICE ALBUQUERQUE NM
400 AM MDT THU JUL 28 2016

NOTE: "FAIR" MEANS FEW OR NO CLOUDS BELOW 12,000 FEET AGL WITH NO
       SIGNIFICANT WEATHER OR OBSTRUCTIONS TO VISION.

      THIS PRODUCT IS RELEASED AS TWO VERSIONS.  ONE VERSION NEAR
      THE TOP OF THE HOUR CONTAINING PRELIMINARY DATA FROM ALBUQUERQUE
      AND OTHER STATIONS.  A FINAL VERSION WITH ADDITIONAL DATA IS
      ISSUED ABOUT 10 MINUTES AFTER THE HOUR.

NMZ501-503-504-510>518-281100-
NORTHWEST PLATEAU/NORTHCENTRAL MOUNTAINS

CITY           SKY/WX    TMP DP  RH WIND       PRES   REMARKS
FARMINGTON     FAIR      73  41  31 E8        30.14S
LOS ALAMOS     FAIR      65  50  57 S8G17     30.39R
SANTA FE       FAIR      68  52  56 SE15      30.30R
TAOS           FAIR      61  37  41 E10       30.37S
ANGEL FIRE     FAIR      46  44  91 CALM      30.48S

$$
NMZ402-403-502-505>509-281100-
WESTCENTRAL MOUNTAINS/SOUTHWEST MOUNTAINS

CITY           SKY/WX    TMP DP  RH WIND       PRES   REMARKS
GALLUP         FAIR      63  37  38 NW3       30.26R
GRANTS         FAIR      62  49  60 SW3       30.29S
SILVER CITY    FAIR      64  58  80 N6        30.19S

$$
NMZ407-409-411-412-281100-
SOUTHERN DESERTS

CITY           SKY/WX    TMP DP  RH WIND       PRES   REMARKS
LORDSBURG      FAIR      77  50  38 S14       30.08R
DEMING         FAIR      71  57  61 CALM      30.11S
LAS CRUCES     FAIR      73  55  54 NE6       30.14S
HOLLOMAN AFB   FAIR      74  57  56 NE3       30.09F
ALAMOGORDO     FAIR      72  55  56 E6        30.12S
T OR C         FAIR      70  56  61 NW7       30.16S

$$
NMZ519>523-281100-
CENTRAL VALLEYS/CENTRAL HIGHLANDS

CITY           SKY/WX    TMP DP  RH WIND       PRES   REMARKS
ALBUQUERQUE    FAIR      73  54  51 E15       30.22S
DOUBLE EAGLE   FAIR      65  51  60 CALM      30.27R
MORIARTY ARPT  FAIR      63  53  69 CALM      30.32S
CLINES CORNERS FAIR      58  52  80 E7        30.36F
BELEN          FAIR      66  50  55 CALM      30.21S
SOCORRO        FAIR      67  56  68 SW6       30.17F

$$
NMZ524>526-539-540-281100-
SOUTHCENTRAL MOUNTAINS

CITY           SKY/WX    TMP DP  RH WIND       PRES   REMARKS
RUIDOSO          N/A     64  52  63 SW5       30.35S

$$
NMZ527>531-281100-
NORTHEAST HIGHLANDS/NORTHEAST PLAINS

CITY           SKY/WX    TMP DP  RH WIND       PRES   REMARKS
LAS VEGAS      FAIR      57  51  80 W8        30.35F
RATON          FAIR     N/A N/A N/A N3        30.32F
CLAYTON        FAIR      66  57  72 W15G24    30.19F

$$
NMZ532>537-281100-
EASTCENTRAL PLAINS

CITY           SKY/WX    TMP DP  RH WIND       PRES   REMARKS
TUCUMCARI      FAIR      69  57  65 NW12      30.14S
CANNON AFB     FAIR      65  57  76 NW8       30.15S
CLOVIS AIRPORT FAIR      64  52  63 W7        30.15S

$$
NMZ028-029-538-281100-
SOUTHEAST PLAINS

CITY           SKY/WX    TMP DP  RH WIND       PRES   REMARKS
ROSWELL        FAIR      72  59  63 N6        30.10F
ARTESIA        FAIR      73  59  60 N7        30.09F
CARLSBAD       FAIR      73  59  61 NW8       30.05S
HOBBS          FAIR      70  61  73 NW6       30.10S


$$




USA.gov is the U.S. government's official web portal to all federal, state and local government web resources and services.